Location: Owatonna
(44.0840°N, 93.2260°W)
Time: 15:49:51
(UTC-05:00)

ISS - Visible Passes

Search period start: 26 June 2022 00:00
Search period end: 06 July 2022 00:00
Orbit: 414 x 420 km, 51.6° (Epoch: 26 June)

Date Brightness Start Highest point End Pass type
(mag) Time Alt. Az. Time Alt. Az. Time Alt. Az.
27 Jun -2.1 04:06:29 15° S 04:08:23 24° SE 04:11:11 10° E visible
28 Jun -1.6 03:20:00 15° SE 03:20:16 15° SE 03:22:15 10° E visible
28 Jun -3.7 04:53:16 10° WSW 04:56:37 80° NNW 05:00:00 10° ENE visible
29 Jun -3.6 04:06:12 22° SW 04:08:12 64° SE 04:11:32 10° ENE visible
30 Jun -3.0 03:19:20 36° SSE 03:19:41 37° SE 03:22:50 10° ENE visible
30 Jun -2.6 04:53:15 10° W 04:56:25 39° NNW 04:59:37 10° NE visible
01 Jul -1.7 02:32:18 19° ESE 02:32:18 19° ESE 02:33:48 10° E visible
01 Jul -3.3 04:05:10 16° WSW 04:07:37 55° NNW 04:10:56 10° NE visible
02 Jul -3.9 03:17:56 49° WSW 03:18:43 86° NW 03:22:06 10° ENE visible
02 Jul -1.8 04:52:54 10° WNW 04:55:47 26° NNW 04:58:39 10° NE visible
03 Jul -3.0 02:30:32 43° E 02:30:32 43° E 02:33:03 10° ENE visible
03 Jul -2.1 04:03:35 10° W 04:06:37 31° NNW 04:09:39 10° NE visible
04 Jul -1.3 01:42:58 15° E 01:42:58 15° E 01:43:46 10° ENE visible
04 Jul -2.7 03:15:47 24° W 03:17:22 41° NNW 03:20:34 10° NE visible
04 Jul -1.4 04:51:58 10° NW 04:54:39 22° N 04:57:20 10° NE visible
05 Jul -3.4 02:28:02 61° NNW 02:28:02 61° NNW 02:31:20 10° NE visible
05 Jul -1.5 04:02:24 10° WNW 04:05:09 23° N 04:07:54 10° NE visible
